Location: Unspecified
(0.0000°N, 0.0000°E)
Time: 08:33:17
(UTC+00:00)

O/OREOS (USA 219) - Pass Details

Date: 21 May 2021
Orbit: 621 x 646 km, 72.0° (Epoch: 22 May)

Event Time Altitude Azimuth Distance (km) Brightness Sun altitude
Exits shadow 03:19:46 13° 102° (ESE) 1,814 ? -36.4°
Drops below altitude 10° 03:21:31 10° 79° (ENE) 1,983 ? -36.0°
Sets 03:25:00 0° 50° (NE) 2,886 ? -35.2°
